Time,TemperatureF,DewpointF,PressureIn,WindDirection,WindDirectionDegrees,WindSpeedMPH,WindSpeedGustMPH,Humidity,HourlyPrecipIn,Conditions,Clouds,dailyrainin,SoftwareType,DateUTC
2013-03-03 00:21:00,44.0,8.0,30.09,WNW,300,1.0,6.0,22,0.00,,,-99.99,,2013-03-03 08:21:00,
2013-03-03 00:31:00,44.0,8.0,30.09,WNW,300,1.0,6.0,22,0.00,,,-99.99,,2013-03-03 08:31:00,
2013-03-03 00:41:00,44.0,8.0,30.09,WNW,300,1.0,6.0,22,0.00,,,-99.99,,2013-03-03 08:41:00,
2013-03-03 01:21:00,41.0,7.0,30.10,North,0,0.0,1.0,24,0.00,,,-99.99,,2013-03-03 09:21:00,
2013-03-03 01:32:00,41.0,7.0,30.10,North,0,0.0,1.0,24,0.00,,,-99.99,,2013-03-03 09:32:00,
2013-03-03 01:41:00,41.0,7.0,30.10,North,0,0.0,1.0,24,0.00,,,-99.99,,2013-03-03 09:41:00,
2013-03-03 02:21:00,34.0,13.0,30.13,North,0,0.0,1.0,41,0.00,,,-99.99,,2013-03-03 10:21:00,
2013-03-03 02:32:00,34.0,13.0,30.13,North,0,0.0,1.0,41,0.00,,,-99.99,,2013-03-03 10:32:00,
2013-03-03 02:42:00,34.0,13.0,30.13,North,0,0.0,1.0,41,0.00,,,-99.99,,2013-03-03 10:42:00,
2013-03-03 03:21:00,36.0,10.0,30.11,North,0,0.0,1.0,33,0.00,,,-99.99,,2013-03-03 11:21:00,
2013-03-03 03:31:00,36.0,10.0,30.11,North,0,0.0,1.0,33,0.00,,,-99.99,,2013-03-03 11:31:00,
2013-03-03 03:42:00,36.0,10.0,30.11,North,0,0.0,1.0,33,0.00,,,-99.99,,2013-03-03 11:42:00,
2013-03-03 04:21:00,42.0,10.0,30.06,West,280,3.0,8.0,27,0.00,,,-99.99,,2013-03-03 12:21:00,
2013-03-03 04:32:00,42.0,10.0,30.06,West,280,3.0,8.0,27,0.00,,,-99.99,,2013-03-03 12:32:00,
2013-03-03 04:42:00,42.0,10.0,30.06,West,280,3.0,8.0,27,0.00,,,-99.99,,2013-03-03 12:42:00,
2013-03-03 05:21:00,43.0,17.0,30.05,NW,320,3.0,8.0,35,0.00,,,-99.99,,2013-03-03 13:21:00,
2013-03-03 05:32:00,43.0,17.0,30.05,NW,320,3.0,8.0,35,0.00,,,-99.99,,2013-03-03 13:32:00,
2013-03-03 05:42:00,43.0,17.0,30.05,NW,320,3.0,8.0,35,0.00,,,-99.99,,2013-03-03 13:42:00,
2013-03-03 06:21:00,44.0,22.0,30.04,WNW,300,3.0,8.0,42,0.00,,,-99.99,,2013-03-03 14:21:00,
2013-03-03 06:32:00,44.0,22.0,30.04,WNW,300,3.0,8.0,42,0.00,,,-99.99,,2013-03-03 14:32:00,
2013-03-03 06:42:00,44.0,22.0,30.04,WNW,300,3.0,8.0,42,0.00,,,-99.99,,2013-03-03 14:42:00,
2013-03-03 07:22:00,44.0,23.0,30.07,WSW,250,4.0,10.0,43,0.00,,,-99.99,,2013-03-03 15:22:00,
2013-03-03 07:32:00,44.0,23.0,30.07,WSW,250,4.0,10.0,43,0.00,,,-99.99,,2013-03-03 15:32:00,
2013-03-03 07:42:00,44.0,23.0,30.07,WSW,250,4.0,10.0,43,0.00,,,-99.99,,2013-03-03 15:42:00,
2013-03-03 08:21:00,45.0,23.0,30.11,West,280,6.0,11.0,41,0.00,,,-99.99,,2013-03-03 16:21:00,
2013-03-03 08:31:00,45.0,23.0,30.11,West,280,6.0,11.0,41,0.00,,,-99.99,,2013-03-03 16:31:00,
2013-03-03 08:42:00,45.0,23.0,30.11,West,280,6.0,11.0,41,0.00,,,-99.99,,2013-03-03 16:42:00,
2013-03-03 09:22:00,47.0,21.0,30.07,West,270,6.0,18.0,35,0.00,,,-99.99,,2013-03-03 17:22:00,
2013-03-03 09:32:00,47.0,21.0,30.07,West,270,6.0,18.0,35,0.00,,,-99.99,,2013-03-03 17:32:00,
2013-03-03 09:42:00,47.0,21.0,30.07,West,270,6.0,18.0,35,0.00,,,-99.99,,2013-03-03 17:42:00,
2013-03-03 10:21:00,49.0,19.0,30.04,West,280,11.0,20.0,30,0.00,,,-99.99,,2013-03-03 18:21:00,
2013-03-03 10:31:00,49.0,19.0,30.04,West,280,11.0,20.0,30,0.00,,,-99.99,,2013-03-03 18:31:00,
2013-03-03 10:42:00,49.0,19.0,30.04,West,280,11.0,20.0,30,0.00,,,-99.99,,2013-03-03 18:42:00,
2013-03-03 11:21:00,48.0,19.0,30.04,West,260,13.0,22.0,31,0.00,,,-99.99,,2013-03-03 19:21:00,
2013-03-03 11:31:00,48.0,19.0,30.04,West,260,13.0,22.0,31,0.00,,,-99.99,,2013-03-03 19:31:00,
2013-03-03 11:42:00,48.0,19.0,30.04,West,260,13.0,22.0,31,0.00,,,-99.99,,2013-03-03 19:42:00,
2013-03-03 12:21:00,49.0,20.0,30.02,WNW,300,8.0,20.0,31,0.00,,,-99.99,,2013-03-03 20:21:00,
2013-03-03 12:32:00,49.0,20.0,30.02,WNW,300,8.0,20.0,31,0.00,,,-99.99,,2013-03-03 20:32:00,
2013-03-03 12:42:00,49.0,20.0,30.02,WNW,300,8.0,20.0,31,0.00,,,-99.99,,2013-03-03 20:42:00,
2013-03-03 13:21:00,50.0,16.0,30.02,WSW,250,10.0,22.0,25,0.00,,,-99.99,,2013-03-03 21:21:00,
2013-03-03 13:32:00,50.0,16.0,30.02,WSW,250,10.0,22.0,25,0.00,,,-99.99,,2013-03-03 21:32:00,
2013-03-03 13:41:00,50.0,16.0,30.02,WSW,250,10.0,22.0,25,0.00,,,-99.99,,2013-03-03 21:41:00,
2013-03-03 14:21:00,50.0,13.0,30.00,WNW,290,9.0,21.0,22,0.00,,,-99.99,,2013-03-03 22:21:00,
2013-03-03 14:32:00,50.0,13.0,30.00,WNW,290,9.0,21.0,22,0.00,,,-99.99,,2013-03-03 22:32:00,
2013-03-03 14:42:00,50.0,13.0,30.00,WNW,290,9.0,21.0,22,0.00,,,-99.99,,2013-03-03 22:42:00,
2013-03-03 15:21:00,48.0,21.0,29.95,West,260,8.0,19.0,34,0.00,,,-99.99,,2013-03-03 23:21:00,
2013-03-03 15:31:00,48.0,21.0,29.95,West,260,8.0,19.0,34,0.00,,,-99.99,,2013-03-03 23:31:00,
2013-03-03 15:41:00,48.0,21.0,29.95,West,260,8.0,19.0,34,0.00,,,-99.99,,2013-03-03 23:41:00,
2013-03-03 16:21:00,46.0,25.0,29.94,West,260,12.0,25.0,44,0.00,,,-99.99,,2013-03-04 00:21:00,
2013-03-03 16:32:00,46.0,25.0,29.94,West,260,12.0,25.0,44,0.00,,,-99.99,,2013-03-04 00:32:00,
2013-03-03 16:42:00,46.0,25.0,29.94,West,260,12.0,25.0,44,0.00,,,-99.99,,2013-03-04 00:42:00,
2013-03-03 17:21:00,45.0,28.0,29.92,WSW,250,7.0,18.0,51,0.00,,,-99.99,,2013-03-04 01:21:00,
2013-03-03 17:31:00,45.0,28.0,29.92,WSW,250,7.0,18.0,51,0.00,,,-99.99,,2013-03-04 01:31:00,
2013-03-03 17:42:00,45.0,28.0,29.92,WSW,250,7.0,18.0,51,0.00,,,-99.99,,2013-03-04 01:42:00,
2013-03-03 18:22:00,41.0,27.0,29.95,NW,310,6.0,14.0,56,0.00,,,-99.99,,2013-03-04 02:22:00,
2013-03-03 18:32:00,41.0,27.0,29.95,NW,310,6.0,14.0,56,0.00,,,-99.99,,2013-03-04 02:32:00,
2013-03-03 18:42:00,41.0,27.0,29.95,NW,310,6.0,14.0,56,0.00,,,-99.99,,2013-03-04 02:42:00,
2013-03-03 19:21:00,38.0,26.0,29.96,NW,320,10.0,21.0,62,0.00,,,-99.99,,2013-03-04 03:21:00,
2013-03-03 19:32:00,38.0,26.0,29.96,NW,320,10.0,21.0,62,0.00,,,-99.99,,2013-03-04 03:32:00,
2013-03-03 19:41:00,38.0,26.0,29.96,NW,320,10.0,21.0,62,0.00,,,-99.99,,2013-03-04 03:41:00,
2013-03-03 20:22:00,38.0,26.0,29.94,NW,310,7.0,14.0,61,0.00,,,-99.99,,2013-03-04 04:22:00,
2013-03-03 20:32:00,38.0,26.0,29.94,NW,310,7.0,14.0,61,0.00,,,-99.99,,2013-03-04 04:32:00,
2013-03-03 20:42:00,38.0,26.0,29.94,NW,310,7.0,14.0,61,0.00,,,-99.99,,2013-03-04 04:42:00,
2013-03-03 21:22:00,37.0,26.0,29.93,NW,320,7.0,18.0,63,0.00,,,-99.99,,2013-03-04 05:22:00,
2013-03-03 21:31:00,37.0,26.0,29.93,NW,320,7.0,18.0,63,0.00,,,-99.99,,2013-03-04 05:31:00,
2013-03-03 21:42:00,37.0,26.0,29.93,NW,320,7.0,18.0,63,0.00,,,-99.99,,2013-03-04 05:42:00,
2013-03-03 22:21:00,36.0,26.0,29.93,West,260,6.0,19.0,67,0.00,,,-99.99,,2013-03-04 06:21:00,
2013-03-03 22:31:00,36.0,26.0,29.93,West,260,6.0,19.0,67,0.00,,,-99.99,,2013-03-04 06:31:00,
2013-03-03 22:42:00,36.0,26.0,29.93,West,260,6.0,19.0,67,0.00,,,-99.99,,2013-03-04 06:42:00,
2013-03-03 23:21:00,36.0,28.0,29.95,WNW,290,5.0,14.0,71,0.00,,,-99.99,,2013-03-04 07:21:00,
2013-03-03 23:32:00,36.0,28.0,29.95,WNW,290,5.0,14.0,71,0.00,,,-99.99,,2013-03-04 07:32:00,
2013-03-03 23:41:00,36.0,28.0,29.95,WNW,290,5.0,14.0,71,0.00,,,-99.99,,2013-03-04 07:41:00,